Weather History for Buffalo, WY

Change the Weather History Date:

Sunday, December 9, 2012

  Actual Average Record
Temperature  
Mean Temperature 11 °F 26 °F  
Max Temperature 20 °F 36 °F 57 °F (2006)
Min Temperature 1 °F 15 °F -19 °F (2009)
Degree Days  
Heating Degree Days 54 39  
Month to date heating degree days 270 348  
Since 1 July heating degree days 1827 2182  
Cooling Degree Days 0 0  
Month to date cooling degree days 0 0  
Year to date cooling degree days 795 492  
Moisture  
Dew Point 3 °F    
Average Humidity 67    
Maximum Humidity 88    
Minimum Humidity 45    
Precipitation  
Precipitation T in 0.01 in 0.12 in (1985)
Month to date precipitation 0.01 0.16  
Year to date precipitation 8.83 13.21  
Sea Level Pressure  
Sea Level Pressure 30.23 in    
Wind  
Wind Speed 7 mph (WNW)    
Max Wind Speed 30 mph    
Max Gust Speed 38 mph    
Visibility 9 miles    
Events Snow    
T = Trace of Precipitation, MM = Missing Value Source: NWS Daily Summary

Daily Weather History Graph

Daily Weather History Graph

Search for Another Location

Airport:

Trip Planner

Search our weather history database for the weather conditions in past years. The results will help you decide how hot, cold, wet, or windy it might be!

Date:

Astronomy

Dec. 09, 2012 Rise Set
Actual Time 7:31 AM MST 4:27 PM MST
Civil Twilight 6:58 AM MST 5:00 PM MST
Nautical Twilight 6:21 AM MST 5:37 PM MST
Astronomical Twilight 5:46 AM MST 6:12 PM MST
Moon 3:00 AM MST (12/9) 1:42 PM MST (12/9)
Length of Visible Light 10h 02m
Length of Day
8h 55m
Waning Crescent, 18% of the Moon is Illuminated
Dec 9
Waning Crescent
Dec 13
New
Dec 19
First Quarter
Dec 28
Full
Jan 4
Last Quarter

Hourly Weather History & Observations

Time (MST) Temp. Windchill Dew Point Humidity Pressure Visibility Wind Dir Wind Speed Gust Speed Precip Events Conditions
12:33 AM 6.8 °F -11.3 °F 3.2 °F 85% 30.06 in 10.0 mi NNW 16.1 mph 32.2 mph N/A   Overcast
12:44 AM 6.8 °F -12.4 °F 3.2 °F 85% 30.06 in 9.0 mi NNW 18.4 mph 28.8 mph N/A   Overcast
12:53 AM 7.0 °F -11.0 °F 3.0 °F 84% 30.24 in 9.0 mi NNW 16.1 mph 25.3 mph N/A   Overcast
1:26 AM 6.8 °F -8.6 °F 3.2 °F 85% 30.08 in 9.0 mi NNW 11.5 mph 24.2 mph N/A   Mostly Cloudy
1:53 AM 7.0 °F -8.3 °F 3.0 °F 84% 30.27 in 4.0 mi NNW 11.5 mph - 0.00 in Snow Light Snow
2:17 AM 6.8 °F -7.8 °F 3.2 °F 85% 30.09 in 4.0 mi NNW 10.4 mph - 0.00 in   Overcast
2:24 AM 8.6 °F -7.0 °F 3.2 °F 79% 30.10 in 5.0 mi NW 12.7 mph - 0.00 in   Mostly Cloudy
2:53 AM 6.1 °F -11.6 °F 3.0 °F 87% 30.31 in 10.0 mi North 15.0 mph 23.0 mph 0.00 in   Mostly Cloudy
3:28 AM 6.8 °F -10.0 °F 3.2 °F 85% 30.11 in 6.0 mi North 13.8 mph 26.5 mph 0.00 in Snow Light Snow
3:36 AM 6.8 °F -10.0 °F 3.2 °F 85% 30.11 in 5.0 mi North 13.8 mph 21.9 mph 0.00 in Snow Light Snow
3:43 AM 6.8 °F -10.0 °F 3.2 °F 85% 30.11 in 7.0 mi North 13.8 mph 23.0 mph 0.00 in Snow Light Snow
3:53 AM 7.0 °F -8.3 °F 3.9 °F 87% 30.33 in 10.0 mi NNW 11.5 mph 24.2 mph 0.00 in   Mostly Cloudy
4:53 AM 8.1 °F -4.3 °F 3.9 °F 83% 30.36 in 10.0 mi NNW 8.1 mph - N/A   Overcast
5:53 AM 6.1 °F -5.6 °F 1.9 °F 83% 30.40 in 10.0 mi NNW 6.9 mph - N/A   Partly Cloudy
6:53 AM 1.9 °F -7.6 °F -2.0 °F 83% 30.44 in 10.0 mi West 4.6 mph - N/A   Clear
7:53 AM 3.9 °F - -2.0 °F 76% 30.44 in 10.0 mi Calm Calm - N/A   Clear
8:10 AM 3.2 °F -6.2 °F -0.4 °F 85% 30.20 in 10.0 mi South 4.6 mph - N/A   Partly Cloudy
8:53 AM 7.0 °F 0.1 °F 3.0 °F 84% 30.45 in 10.0 mi SSE 3.5 mph - N/A   Clear
9:53 AM 10.0 °F 0.4 °F 5.0 °F 80% 30.45 in 10.0 mi SE 5.8 mph - N/A   Clear
10:53 AM 12.9 °F 3.8 °F 3.9 °F 67% 30.43 in 10.0 mi SE 5.8 mph - N/A   Clear
11:53 AM 16.0 °F 3.6 °F 5.0 °F 62% 30.38 in 10.0 mi SE 10.4 mph - N/A   Clear
12:53 PM 18.0 °F 6.1 °F 6.1 °F 60% 30.33 in 10.0 mi SSE 10.4 mph - N/A   Clear
1:53 PM 19.0 °F 6.8 °F 7.0 °F 59% 30.30 in 10.0 mi SSE 11.5 mph - N/A   Clear
2:53 PM 19.9 °F 8.6 °F 7.0 °F 57% 30.28 in 10.0 mi SSE 10.4 mph - N/A   Clear
3:53 PM 18.0 °F 6.1 °F 8.1 °F 65% 30.26 in 10.0 mi SSE 10.4 mph - N/A   Clear
4:53 PM 14.0 °F 2.9 °F 6.1 °F 71% 30.25 in 10.0 mi SSE 8.1 mph - N/A   Clear
5:53 PM 10.9 °F 2.9 °F 3.9 °F 73% 30.22 in 10.0 mi SW 4.6 mph - N/A   Clear
6:53 PM 10.9 °F 4.7 °F 3.0 °F 70% 30.18 in 10.0 mi SSW 3.5 mph - N/A   Clear
7:53 PM 9.0 °F -0.9 °F 1.9 °F 73% 30.15 in 10.0 mi WNW 5.8 mph - N/A   Clear
8:53 PM 15.1 °F 6.4 °F 3.9 °F 61% 30.09 in 10.0 mi NW 5.8 mph - N/A   Scattered Clouds
9:53 PM 18.0 °F 12.7 °F 3.0 °F 52% 30.04 in 10.0 mi West 3.5 mph - N/A   Overcast
10:53 PM 19.9 °F - 1.9 °F 46% 30.01 in 10.0 mi Calm Calm - N/A   Overcast
11:53 PM 19.9 °F 13.4 °F 3.9 °F 50% 29.99 in 10.0 mi South 4.6 mph - N/A   Overcast